Flag for Germany Weather past 2 weeks in Koblenz, Rhineland-Palatinate, Germany

Now
59 °F

Refreshingly cool.


Feels Like: 56 °F
Forecast: 49 / 67 °F
Wind: 14 mph from Southwest

Location: Buechel

Current Time: Aug 22, 2014 at 3:46:41 PM

Latest Report: Aug 22, 2014 at 2:20 PM


Visibility: N/A

Pressure: 29.95 "Hg

Humidity: 59%

Dew point: 45 °F

Location of KoblenzLocation

Historic Weather in Koblenz — Graph

°F

Koblenz temperature yesterday

Maximum temperature yesterday: 59 °F (at 3:20 PM)
Minimum temperature yesterday: 43 °F (at 6:20 AM)
Average temperature yesterday: 52 °F

Past Weeks' High & Low Weather Summary

 TemperatureHumidityPressure
High72 °F (Aug 7, 4:20 PM)100% (Aug 9, 4:20 AM)30.12 "Hg (Aug 9, 4:20 AM)
Low43 °F (Aug 20, 5:20 AM)50% (Aug 7, 4:20 PM)29.68 "Hg (Aug 10, 7:20 PM)
Average57 °F79%29.91 "Hg
* Reported Aug 7 2:20 PM — Aug 22 2:20 PM, Koblenz, Weather by CustomWeather, © 2014

Note: Actual official high and low records may vary slightly from our data, if they occured in-between our weather recording intervals... More about our weather records

Advertising

Koblenz weather history for previous 24 hours

 ConditionsComfort  
Time TempWeatherWind HumidityBarometerVisibility
2:20 PM
Aug 22
59 °FRefreshingly cool.14 mph59%29.95 "HgN/A
1:20 PM57 °FCool.12 mph63%29.95 "HgN/A
12:20 PM57 °FBroken clouds.14 mph63%29.95 "HgN/A
11:20 AM57 °FBroken clouds.9 mph63%29.95 "HgN/A
10:20 AM54 °FBroken clouds.9 mph72%29.98 "HgN/A
9:20 AM50 °FPartly sunny.8 mph76%29.95 "HgN/A
8:20 AM48 °FPartly sunny.5 mph82%29.95 "HgN/A
7:20 AM48 °FPassing clouds.8 mph76%29.95 "HgN/A
6:20 AM46 °FPassing clouds.5 mph87%29.98 "HgN/A
5:20 AM48 °FPassing clouds.9 mph76%29.98 "HgN/A
4:20 AM48 °FPassing clouds.7 mph76%29.98 "HgN/A
3:20 AM46 °FCool.6 mph87%29.98 "HgN/A
2:20 AM48 °FCool.6 mph82%30.01 "HgN/A
1:20 AM50 °FCool.6 mph76%30.01 "HgN/A
12:20 AM50 °FCool.6 mph76%30.01 "HgN/A
11:20 PM
Aug 21
52 °FCool.6 mph72%30.01 "HgN/A
10:20 PM54 °FCool.6 mph72%30.01 "HgN/A
9:20 PM54 °FCool.3 mph72%30.01 "HgN/A
8:20 PM55 °FCool.3 mph67%30.01 "HgN/A
7:20 PM57 °FRefreshingly cool.3 mph59%30.01 "HgN/A
6:20 PM57 °FScattered clouds.7 mph59%30.01 "HgN/A
5:20 PM59 °FScattered clouds.8 mph55%30.01 "HgN/A
4:20 PM59 °FScattered clouds.8 mph55%30.04 "HgN/A
3:20 PM59 °FBroken clouds.8 mph55%30.04 "HgN/A
Weather by CustomWeather, © 2014

See weather overviewHow to use our weather pages